Zurück zum Katalog

VANGUARD DEB

AktivUNKNOWN
NORAD 1576·DEBRIS·🇺🇸 United States

Gestartet Mar 17, 1958 von Cape Canaveral Space Force Station

Loading…

Nächste Überflüge (nächste 24 Stunden)

TLE

AktuellSource: Space-Track

Epoche: Sep 14, 2026, 09:14 UTC

1 01576U 58002C   26257.38503537  .00002288  00000-0  20188-2 0  9991
2 01576  34.2216 143.4136 1385998 136.4130 235.4741 11.83529432812670

Verfolge VANGUARD DEB in Echtzeit mit AllMySat

Download on the App Store